This is the latest recevied weather packets stored in our database for station/object KG5MMT-12. If no packets are shown the sender has not sent any weather packets the latest 1 day(s).
| Time | Temp. | Humidity | Pressure | Rain* | Wind** | Luminosity | Snow |
|---|---|---|---|---|---|---|---|
| 1778013529 | 14.44° C | 46% | 0 hPa | 0 mm | 1.79 m/s, 21° | - | - |
| 1778013229 | 14.44° C | 45% | 0 hPa | 0 mm | 5.81 m/s, 255° | - | - |
| 1778012929 | 15° C | 45% | 0 hPa | 0 mm | 2.24 m/s, 5° | - | - |
| 1778012629 | 14.44° C | 46% | 0 hPa | 0 mm | 3.13 m/s, 118° | - | - |
| 1778012329 | 14.44° C | 45% | 0 hPa | 0 mm | 1.34 m/s, 358° | - | - |
| 1778012029 | 14.44° C | 45% | 0 hPa | 0 mm | 0.45 m/s, 16° | - | - |
| 1778011729 | 15° C | 44% | 0 hPa | 0 mm | 3.13 m/s, 67° | - | - |
| 1778011429 | 14.44° C | 44% | 0 hPa | 0 mm | 1.79 m/s, 88° | - | - |
| 1778011129 | 15° C | 44% | 0 hPa | 0 mm | 1.34 m/s, 255° | - | - |
| 1778010829 | 14.44° C | 44% | 0 hPa | 0 mm | 1.79 m/s, 78° | - | - |
| 1778010529 | 14.44° C | 46% | 0 hPa | 0 mm | 0 m/s | - | - |
| 1778010229 | 13.89° C | 46% | 0 hPa | 0 mm | 0 m/s | - | - |
| 1778009929 | 13.89° C | 46% | 0 hPa | 0 mm | 0.45 m/s, 310° | - | - |
| 1778009629 | 13.89° C | 47% | 0 hPa | 0 mm | 0.45 m/s, 5° | - | - |
| 1778009329 | 13.89° C | 46% | 0 hPa | 0 mm | 0 m/s | - | - |
| 1778009029 | 13.89° C | 46% | 0 hPa | 0 mm | 2.24 m/s, 250° | - | - |
| 1778008729 | 13.89° C | 45% | 0 hPa | 0 mm | 2.68 m/s, 5° | - | - |
| 1778008429 | 14.44° C | 44% | 0 hPa | 0 mm | 3.58 m/s, 143° | - | - |
| 1778008129 | 14.44° C | 42% | 0 hPa | 0 mm | 1.34 m/s, 344° | - | - |
| 1778007829 | 15° C | 41% | 0 hPa | 0 mm | 0 m/s | - | - |
| 1778007529 | 15° C | 41% | 0 hPa | 0 mm | 0 m/s | - | - |
| 1778007229 | 15.56° C | 41% | 0 hPa | 0 mm | 0.45 m/s, 341° | - | - |
| 1778006929 | 15.56° C | 39% | 0 hPa | 0 mm | 2.24 m/s, 322° | - | - |
| 1778006629 | 16.11° C | 38% | 0 hPa | 0 mm | 0.45 m/s, 52° | - | - |
| 1778006329 | 15.56° C | 40% | 0 hPa | 0 mm | 0 m/s | - | - |
* Rain latest hour (hover to see other rain measurements)
** Current wind speed in m/s (hover to see current wind gust speed)